Regional Weather Roundup
Issued by NWS

Home | Current Version | Previous Version | Text Only | Print | Product List | Glossary On
Versions: 1 2 3 4 5 6 7 8 9 10 11 12 13 14 15 16 17 18 19 20 21 22 23 24 25 26 27 28 29 30 31 32 33 34 35 36 37 38 39 40 41 42 43 44 45 46 47 48 49 50
000
ASMX46 KSGX 050711
RWRMX

MEXICAN WEATHER ROUNDUP
NATIONAL WEATHER SERVICE SAN DIEGO CA
1200 AM PDT SUN JUL 05 2015

BAJA CALIFORNIA

CITY           SKY/WX    TMP DP  RH WIND       PRES   REMARKS
ENSENADA NW      N/A     65  32  28 NW9       29.92F
LA PAZ           N/A    N/A N/A N/A MISG        N/A
TIJUANA        CLOUDY    64  57  77 W7        29.97F

NORTHWESTERN MEXICO

CITY           SKY/WX    TMP DP  RH WIND       PRES   REMARKS
HERMOSILLO     PTCLDY    86  75  70 CALM      29.91R HX  95

NORTHEASTERN MEXICO

CITY           SKY/WX    TMP DP  RH WIND       PRES   REMARKS
MONTERREY      CLEAR     75  66  73 E7        29.97S
TORREON        PTCLDY    82  63  51 NW2       30.04F

WESTERN MEXICO

CITY           SKY/WX    TMP DP  RH WIND       PRES   REMARKS
GUADALAJARA    LGT RAIN  66  63  88 CALM      30.22S
MAZATLAN       PTCLDY    77  70  78 E7        29.89S
PTO. VALLARTA  CLOUDY    84  75  74 CALM      29.92F
ZACATECAS      MOCLDY    61  48  63 CALM      30.32S

CENTRAL MEXICO

CITY           SKY/WX    TMP DP  RH WIND       PRES   REMARKS
LEON           CLOUDY    61  59  94 CALM      30.36F
MEXICO CITY    MOCLDY    59  54  82 CALM      30.40F
QUERETARO      CLOUDY    59  59 100 CALM      30.36F
S. LUIS POTOSI CLOUDY    61  59  94 SE6       30.30S
TOLUCA         MOCLDY    54  50  87 S9        30.48S
VERACRUZ         N/A    N/A N/A N/A MISG        N/A

SOUTHERN MEXICO

CITY           SKY/WX    TMP DP  RH WIND       PRES   REMARKS
ACAPULCO       MOCLDY    84  77  79 E8        29.90F
OAXACA         PTCLDY    61  59  94 NE2       30.28
TAPACHULA      CLEAR     82  77  83 CALM      29.90S

YUCATAN PENINSULA

CITY           SKY/WX    TMP DP  RH WIND       PRES   REMARKS
CANCUN         MOCLDY    81  81 100 NE6       30.04F
COZUMEL        MOCLDY    77  77 100 CALM      30.04F
MERIDA         CLEAR     79  72  78 E6        30.03F

$$




USA.gov is the U.S. government's official web portal to all federal, state and local government web resources and services.